Terminal Aerodrome Forecast
Issued by NWS

Home | Current Version | Previous Version | Text Only | Print | Product List | Glossary On
Versions: 1 2 3 4 5 6 7 8 9 10 11 12 13 14 15 16 17 18 19 20 21 22
000
FTUS44 KSJT 262300 AAA
TAFBBD
TAF AMD
KBBD 262301Z 2623/2718 15015KT P6SM BKN060
      TEMPO 2700/2703 P6SM TS BKN050CB
     FM270300 16008KT P6SM SCT060 BKN250
      TEMPO 2703/2705 P6SM TS BKN050CB
     FM270600 VRB04KT P6SM OVC100
     FM271500 25012KT P6SM SKC=

USA.gov is the U.S. government's official web portal to all federal, state and local government web resources and services.